Regional Weather Roundup
Issued by NWS

Home | Current Version | Previous Version | Text Only | Print | Product List | Glossary On
Versions: 1 2 3 4 5 6 7 8 9 10 11 12 13 14 15 16 17 18 19 20 21 22 23 24 25 26 27 28 29 30 31 32 33 34 35 36 37 38 39 40 41 42 43 44 45 46 47 48 49 50
000
ASUS43 KMKX 290910
RWRWI

WISCONSIN REGIONAL WEATHER ROUNDUP
NATIONAL WEATHER SERVICE MILWAUKEE/SULLIVAN WI
300 AM CST THU JAN 29 2015

NOTE: "FAIR" INDICATES FEW OR NO CLOUDS BELOW 12,000 FEET WITH NO
SIGNIFICANT WEATHER AND/OR OBSTRUCTIONS TO VISIBILITY.

WIZ001-002-006>008-014>016-023>028-291000-
NORTHWEST WISCONSIN

CITY           SKY/WX    TMP DP  RH WIND       PRES   REMARKS
SUPERIOR ARPT  CLOUDY    32  28  85 N12       29.88R WCI  23
ASHLAND        CLOUDY    30  27  88 NW6       29.84R FOG     WCI  24
HAYWARD        CLOUDY    29  26  89 NW7       29.83R FOG     WCI  22
SIREN          CLOUDY    30  29  98 NW7       29.88R FOG     WCI  23
CUMBERLAND     CLOUDY    28  28 100 NW9       29.84S FOG     WCI  20
RICE LAKE      CLOUDY    30  28  95 NW8       29.86R FOG     WCI  22
CHETEK         CLOUDY    28  28  99 NW5       29.84S FOG     WCI  23
LADYSMITH      FOG       27  26  97 NW5       29.83S VSB 1   WCI  22
EAU CLAIRE     CLOUDY    29  26  89 NW7       29.84S FOG     WCI  22
MENOMONIE      CLOUDY    31  29  93 NW9       29.86R FOG     WCI  23
NEW RICHMOND   CLOUDY    30  30 100 NW10      29.88R FOG     WCI  21
OSCEOLA        CLOUDY    31  31 100 NW7       29.92R FOG     WCI  25
$$

WIZ003>005-009-010-017-018-291000-
NORTH CENTRAL WISCONSIN

CITY           SKY/WX    TMP DP  RH WIND       PRES   REMARKS
MANITOWISH WTR CLOUDY    25  25 100 NW5       29.76F FOG     WCI  19
ARBOR VITAE    CLOUDY    27  25  93 NW3       29.76F FOG
WOODRUFF       CLOUDY    27  25  93 NW3       29.76F FOG
RHINELANDER    CLOUDY    25  23  92 W3        29.76F FOG
EAGLE RIVER    CLOUDY    25  22  89 CALM      29.75S FOG
LAND O LAKES   CLOUDY    26  24  96 CALM      29.75F FOG
PHILLIPS       CLOUDY    25  24  97 CALM      29.78S FOG
TOMAHAWK       CLOUDY    25  24  96 CALM      29.78S FOG
MEDFORD        FOG       25  24  96 NW6       29.78S VSB 1   WCI  18
MERRILL        CLOUDY    26  26 100 CALM      29.78S FOG
$$

WIZ029-030-035-036-043>047-291000-
CENTRAL WISCONSIN

CITY           SKY/WX    TMP DP  RH WIND       PRES   REMARKS
WAUSAU         CLOUDY    26  25  96 NW5       29.77S FOG     WCI  20
MOSINEE        CLOUDY    27  27 100 W3        29.78S FOG
MARSHFIELD     CLOUDY    27  24  89 NW7       29.79R FOG     WCI  19
STEVENS POINT  CLOUDY    25  24  96 CALM      29.79S FOG
WAUPACA        CLOUDY    31  25  80 W3        29.79S
WAUTOMA        CLOUDY    29  26  88 CALM      29.79S
WISC RAPIDS    CLOUDY    27  24  89 NW3       29.80S FOG
CAMP DOUGLAS   CLOUDY    28  28 100 NW3       29.80S FOG
$$

WIZ011>013-019>022-031-037>040-048>050-291000-
NORTHEAST WISCONSIN

CITY           SKY/WX    TMP DP  RH WIND       PRES   REMARKS
ANTIGO         FOG       24  24 100 NW5       29.75F VSB 1   WCI  18
SHAWANO        CLOUDY    32  25  77 CALM      29.78F
OCONTO         CLOUDY    31  25  80 MISG      29.78F
STURGEON BAY   CLOUDY    32  27  80 SW5       29.80F WCI  27
GREEN BAY      CLOUDY    31  25  78 CALM      29.78F
MANITOWOC      CLOUDY    32  30  92 CALM      29.78F
APPLETON       CLOUDY    30  25  80 CALM      29.78F
CLINTONVILLE   CLOUDY    30  25  80 CALM      29.78F
OSHKOSH        CLOUDY    30  26  85 N3        29.77F FOG
$$

WIZ032>034-041-042-053>061-291000-
SOUTHWEST WISCONSIN

CITY           SKY/WX    TMP DP  RH WIND       PRES   REMARKS
LA CROSSE      CLOUDY    32  28  85 NW10      29.83R WCI  24
SPARTA         CLOUDY    29  29 100 CALM      29.82F FOG
VIROQUA        CLOUDY    30  30 100 NW7       29.78S WCI  23
BOSCOBEL       CLOUDY    33  30  88 N6        29.79S FOG     WCI  28
PRAIRIE DU CHI CLOUDY    32  30  93 NW8       29.81R FOG     WCI  25
PLATTEVILLE    CLOUDY    32  30  93 N8        29.74S WCI  25
$$

WIZ056-057-062-063-064-067-068-291000-
SOUTH CENTRAL WISCONSIN

CITY           SKY/WX    TMP DP  RH WIND       PRES   REMARKS
REEDSBURG      CLOUDY    30  29  98 N5        29.77F FOG     WCI  25
BARABOO/DELLS  CLOUDY    29  28  93 N3        29.77S FOG
LONE ROCK      CLOUDY    32  29  88 N7        29.77F FOG     WCI  26
MINERAL POINT  CLOUDY    32  32 100 N7        29.74S FOG     WCI  26
MADISON        CLOUDY    31  26  82 N6        29.74F WCI  25
MIDDLETON      CLOUDY    32  28  84 N7        29.75F WCI  26
WATERTOWN      CLOUDY    31  26  80 CALM      29.74F
MONROE         CLOUDY    32  30  93 N7        29.71F WCI  26
JANESVILLE     CLOUDY    32  28  86 NE3       29.72F
$$

WIZ051-052-058>065-066-070>072-291000-
SOUTHEAST WISCONSIN

CITY           SKY/WX    TMP DP  RH WIND       PRES   REMARKS
MILWAUKEE      CLOUDY    32  25  75 CALM      29.75F
WAUKESHA       CLOUDY    30  27  86 CALM      29.75F
MILWAUKEE/TIMM CLOUDY    32  27  80 CALM      29.76F
RACINE         CLOUDY    33  26  75 S6        29.76F WCI  28
BURLINGTON     MOCLDY    31  26  80 N3        29.73F
KENOSHA        MOCLDY    33  26  75 E3        29.74F
FOND DU LAC    CLOUDY    31  25  78 N3        29.77F
SHEBOYGAN      CLOUDY    32  26  78 S6        29.76F WCI  26
WEST BEND      CLOUDY    32  23  69 CALM      29.76F
JUNEAU         CLOUDY    30  26  84 CALM      29.76F
$$

LSZ147-162-291000-
LAKE SUPERIOR

STATION/POSITION TIME  TEMP    WIND        PRES    WAVE
                       AIR SEA DIR/SP/G            HT/PER
                 (UTC) (F)     (DEG/KT/KT) (MB)    (FT/S)
DEVILS ISLAND    0900   32     320/ 15/ 17 1011.1R
PORT WING        0800   31     270/  9/ 12 1010.8S
SAXON HARBOR     0800   29      CALM  /  5 1010.2S
$$

LMZ867-665-643>646-291000-
LAKE MICHIGAN

STATION/POSITION TIME  TEMP    WIND        PRES    WAVE
                       AIR SEA DIR/SP/G            HT/PER
                 (UTC) (F)     (DEG/KT/KT) (MB)    (FT/S)
NORTHPORT PIER   0820   31     160/  4/ 13 1009.8F
SISTER BAY       0813   31     190/ 11/ 12   N/A
KEWAUNEE LAKESHO 0800   33     200/ 11/ 15 1008.7F
SHEBOYGAN LAKESH 0900   35     190/ 11/ 12 1008.8F
PORT WASHINGTON  0840   34     180/  6/  8 1009.1F
MILWAUKEE LAKESH 0800   34     160/  9/ 10   N/A
KENOSHA   LAKESH 0900   33     180/  5/  9 1007.5F
$$

TC  - TEMPERATURE IN CELSIUS
VSB - VISIBILITY IN STATUTE MILES
WCI - WIND CHILL INDEX
HX  - HEAT INDEX



USA.gov is the U.S. government's official web portal to all federal, state and local government web resources and services.